STARLINK-1986 (47582 NORAD) Tracking and Keplerian Element Data

This shows tracking and keplerian element data for the satellite.

Feedback or suggestion? Click here.




ElementValue
Catalog47582
NameSTARLINK-1986
Epoch Orbit177
Epoch Day101.91668981
Epoch Year2021
RAAN157.5734
Inclination53.054
Eccentricity0.0003934
Argument of Perigee11.5964
Mean Anonmoly227.0829
Mean Motion15.62790661
Decay Rate0.00020088
L11 47582U 21009AL 21101.91668981 .00020088 00000-0 22431-3 0 9994
L22 47582 53.0540 157.5734 0003934 11.5964 227.0829 15.62790661 1770

Live tracking and technical data element details for STARLINK-1986 (NORAD 47582). STARLINK-1986 can be tracked NOW for your location showing map with azimuth and elevation plus other details from your city location.

Track the satellite on the map from your city or location and see movement details for azimuth, elevation, latitude, longitude, range, height, and movement on the map or in text.







IsCatalogInMostPopularTable: catalog: 47582, numindb: 19
Update: records affected: 1



GetName: 47582 STARLINK-1986

Hit Count: updated at: Tue, 13 Apr 2021 05:34:00 GMT